| time (UTC) | temp F | wind direction | speed knots | gust knots | rain 1hr in | rain 24hr in | rain mn in | humidity % | barometer mb |
| 20260508125613 | 54 | 158 | 0.9 | 0.9 | 0.00 | 0.00 | 0.00 | 81 | 1019.2 |
| 20260508125112 | 54 | 144 | 0.0 | 0.9 | 0.00 | 0.00 | 0.00 | 87 | 1019.1 |
| 20260508124610 | 53 | 112 | 0.0 | 0.0 | 0.00 | 0.00 | 0.00 | 88 | 1019.0 |
| 20260508124106 | 53 | 208 | 0.0 | 0.0 | 0.00 | 0.00 | 0.00 | 89 | 1018.9 |
| 20260508123605 | 52 | 208 | 0.0 | 0.0 | 0.00 | 0.00 | 0.00 | 89 | 1018.9 |
| 20260508123102 | 52 | 208 | 0.0 | 0.0 | 0.00 | 0.00 | 0.00 | 88 | 1018.9 |
| 20260508122558 | 51 | 202 | 0.0 | 0.9 | 0.00 | 0.00 | 0.00 | 89 | 1018.9 |
| 20260508122055 | 51 | 203 | 0.0 | 0.9 | 0.00 | 0.00 | 0.00 | 88 | 1018.9 |
| 20260508121554 | 51 | 172 | 0.0 | 0.0 | 0.00 | 0.00 | 0.00 | 94 | 1019.0 |
| 20260508121051 | 50 | 172 | 0.0 | 0.0 | 0.00 | 0.00 | 0.00 | 95 | 1018.6 |
| 20260508120548 | 50 | 172 | 0.0 | 0.0 | 0.00 | 0.00 | 0.00 | 96 | 1018.8 |
| 20260508120047 | 49 | 172 | 0.0 | 0.0 | 0.00 | 0.00 | 0.00 | 96 | 1018.7 |
| 20260508115544 | 49 | 172 | 0.0 | 0.9 | 0.00 | 0.00 | 0.00 | 97 | 1018.4 |
| 20260508115040 | 49 | 163 | 0.0 | 0.0 | 0.00 | 0.00 | 0.00 | 98 | 1018.4 |
| 20260508114537 | 49 | 163 | 0.0 | 0.0 | 0.00 | 0.00 | 0.00 | 98 | 1018.4 |
| 20260508114033 | 48 | 162 | 0.0 | 0.0 | 0.00 | 0.00 | 0.00 | 98 | 1018.3 |
| 20260508113531 | 48 | 162 | 0.0 | 0.0 | 0.00 | 0.00 | 0.00 | 99 | 1018.2 |
| 20260508113029 | 47 | 162 | 0.0 | 0.0 | 0.00 | 0.00 | 0.00 | 99 | 1018.2 |
| 20260508112525 | 47 | 162 | 0.0 | 0.0 | 0.00 | 0.00 | 0.00 | 99 | 1018.0 |
| 20260508112022 | 46 | 162 | 0.0 | 0.0 | 0.00 | 0.00 | 0.00 | 99 | 1017.9 |
| 20260508111519 | 46 | 162 | 0.0 | 0.0 | 0.00 | 0.00 | 0.00 | 99 | 1018.0 |
| 20260508111016 | 45 | 162 | 0.0 | 0.0 | 0.00 | 0.00 | 0.00 | 99 | 1017.9 |
| 20260508110514 | 45 | 162 | 0.0 | 0.0 | 0.00 | 0.00 | 0.00 | 99 | 1017.9 |
| 20260508110009 | 45 | 161 | 0.0 | 0.0 | 0.00 | 0.00 | 0.00 | 99 | 1017.9 |
| 20260508105505 | 44 | 161 | 0.0 | 0.0 | 0.00 | 0.00 | 0.00 | 99 | 1017.7 |
| 20260508105002 | 44 | 161 | 0.0 | 0.0 | 0.00 | 0.00 | 0.00 | 99 | 1017.8 |
| 20260508104500 | 44 | 161 | 0.0 | 0.0 | 0.00 | 0.00 | 0.00 | 99 | 1017.4 |
| 20260508103955 | 44 | 161 | 0.0 | 0.0 | 0.00 | 0.00 | 0.00 | 99 | 1017.2 |
| 20260508103453 | 44 | 162 | 0.0 | 0.9 | 0.00 | 0.00 | 0.00 | 99 | 1017.1 |
| 20260508102949 | 44 | 163 | 0.0 | 0.0 | 0.00 | 0.00 | 0.00 | 99 | 1017.1 |
| 20260508102448 | 44 | 163 | 0.0 | 0.0 | 0.00 | 0.00 | 0.00 | 99 | 1017.0 |
| 20260508101945 | 44 | 163 | 0.0 | 0.0 | 0.00 | 0.00 | 0.00 | 99 | 1017.0 |
| 20260508101443 | 44 | 163 | 0.0 | 0.0 | 0.00 | 0.00 | 0.00 | 99 | 1017.0 |
| 20260508100940 | 45 | 163 | 0.0 | 0.9 | 0.00 | 0.00 | 0.00 | 99 | 1016.9 |
| 20260508100438 | 45 | 164 | 0.0 | 0.0 | 0.00 | 0.00 | 0.00 | 99 | 1017.1 |
| 20260508095934 | 45 | 164 | 0.0 | 0.0 | 0.00 | 0.00 | 0.00 | 99 | 1017.0 |
| 20260508095432 | 45 | 164 | 0.0 | 0.0 | 0.00 | 0.00 | 0.00 | 99 | 1016.8 |
| 20260508094928 | 45 | 164 | 0.0 | 0.0 | 0.00 | 0.00 | 0.00 | 99 | 1016.6 |
| 20260508094425 | 45 | 164 | 0.0 | 0.0 | 0.00 | 0.00 | 0.00 | 99 | 1016.5 |
| 20260508093922 | 45 | 164 | 0.0 | 0.0 | 0.00 | 0.00 | 0.00 | 99 | 1016.6 |
| 20260508093420 | 45 | 164 | 0.0 | 0.0 | 0.00 | 0.00 | 0.00 | 99 | 1016.5 |
| 20260508092917 | 45 | 164 | 0.0 | 0.0 | 0.00 | 0.00 | 0.00 | 99 | 1016.4 |
| 20260508092415 | 45 | 164 | 0.0 | 0.0 | 0.00 | 0.00 | 0.00 | 99 | 1016.5 |
| 20260508091913 | 45 | 164 | 0.0 | 0.0 | 0.00 | 0.00 | 0.00 | 99 | 1016.4 |
| 20260508091409 | 46 | 164 | 0.0 | 0.0 | 0.00 | 0.00 | 0.00 | 99 | 1016.3 |
| 20260508090907 | 46 | 164 | 0.0 | 0.0 | 0.00 | 0.00 | 0.00 | 99 | 1016.4 |
| 20260508090405 | 46 | 164 | 0.0 | 0.0 | 0.00 | 0.00 | 0.00 | 99 | 1016.2 |
| 20260508085900 | 46 | 164 | 0.0 | 0.0 | 0.00 | 0.00 | 0.00 | 99 | 1016.1 |
| 20260508085357 | 46 | 164 | 0.0 | 0.0 | 0.00 | 0.00 | 0.00 | 99 | 1016.3 |
| 20260508084854 | 46 | 164 | 0.0 | 0.0 | 0.00 | 0.00 | 0.00 | 99 | 1016.3 |
| 20260508084350 | 46 | 164 | 0.0 | 0.0 | 0.00 | 0.00 | 0.00 | 99 | 1016.4 |
| 20260508083848 | 46 | 164 | 0.0 | 0.9 | 0.00 | 0.00 | 0.00 | 99 | 1016.2 |
| 20260508083346 | 46 | 164 | 0.0 | 0.9 | 0.00 | 0.00 | 0.00 | 98 | 1016.3 |
| 20260508082845 | 46 | 164 | 0.0 | 0.0 | 0.00 | 0.00 | 0.00 | 98 | 1016.1 |
| 20260508082343 | 46 | 164 | 0.0 | 0.9 | 0.00 | 0.00 | 0.00 | 98 | 1016.3 |
| 20260508081840 | 46 | 165 | 0.0 | 0.0 | 0.00 | 0.00 | 0.00 | 99 | 1016.3 |
| 20260508081337 | 46 | 165 | 0.0 | 0.0 | 0.00 | 0.00 | 0.00 | 99 | 1016.0 |
| 20260508080834 | 46 | 165 | 0.0 | 0.0 | 0.00 | 0.00 | 0.00 | 98 | 1016.0 |
| 20260508080332 | 46 | 165 | 0.0 | 0.0 | 0.00 | 0.00 | 0.00 | 98 | 1016.1 |
| 20260508075828 | 46 | 165 | 0.0 | 0.0 | 0.00 | 0.00 | 0.00 | 98 | 1015.9 |
| 20260508075325 | 46 | 165 | 0.0 | 0.0 | 0.00 | 0.00 | 0.00 | 98 | 1015.8 |
| 20260508074823 | 47 | 165 | 0.0 | 0.0 | 0.00 | 0.00 | 0.00 | 98 | 1016.0 |
| 20260508074320 | 46 | 164 | 0.0 | 0.0 | 0.00 | 0.00 | 0.00 | 98 | 1015.7 |
| 20260508073817 | 47 | 164 | 0.0 | 0.0 | 0.00 | 0.00 | 0.00 | 98 | 1015.8 |
| 20260508073315 | 47 | 164 | 0.0 | 0.0 | 0.00 | 0.00 | 0.00 | 98 | 1016.0 |
| 20260508072811 | 47 | 164 | 0.0 | 0.0 | 0.00 | 0.00 | 0.00 | 98 | 1015.9 |
| 20260508072308 | 47 | 165 | 0.0 | 0.0 | 0.00 | 0.00 | 0.00 | 98 | 1015.7 |
| 20260508071805 | 47 | 166 | 0.0 | 0.9 | 0.00 | 0.00 | 0.00 | 98 | 1015.9 |
| 20260508071303 | 47 | 165 | 0.0 | 0.0 | 0.00 | 0.00 | 0.00 | 98 | 1015.7 |
| 20260508070800 | 47 | 164 | 0.0 | 0.0 | 0.00 | 0.00 | 0.00 | 98 | 1015.7 |
| 20260508070259 | 47 | 163 | 0.0 | 0.0 | 0.00 | 0.00 | 0.00 | 98 | 1015.6 |
| 20260508065756 | 47 | 165 | 0.0 | 0.0 | 0.00 | 0.00 | 0.00 | 98 | 1015.6 |
| 20260508065253 | 47 | 165 | 0.0 | 0.0 | 0.00 | 0.00 | 0.00 | 98 | 1015.5 |
| 20260508064752 | 47 | 165 | 0.0 | 0.0 | 0.00 | 0.00 | 0.00 | 98 | 1015.5 |
| 20260508064249 | 47 | 165 | 0.0 | 0.0 | 0.00 | 0.00 | 0.00 | 98 | 1015.4 |
| 20260508063746 | 47 | 165 | 0.0 | 0.0 | 0.00 | 0.00 | 0.00 | 98 | 1015.6 |
| 20260508063244 | 47 | 165 | 0.0 | 0.0 | 0.00 | 0.00 | 0.00 | 98 | 1015.5 |
| 20260508062741 | 48 | 165 | 0.0 | 0.0 | 0.00 | 0.00 | 0.00 | 98 | 1015.6 |
| 20260508062239 | 48 | 165 | 0.0 | 0.0 | 0.00 | 0.00 | 0.00 | 98 | 1015.5 |
| 20260508061735 | 48 | 165 | 0.0 | 0.0 | 0.00 | 0.00 | 0.00 | 98 | 1015.6 |
| 20260508061233 | 48 | 165 | 0.0 | 0.0 | 0.00 | 0.00 | 0.00 | 98 | 1015.5 |
| 20260508060729 | 48 | 165 | 0.0 | 0.0 | 0.00 | 0.00 | 0.00 | 98 | 1015.7 |
| 20260508060227 | 48 | 165 | 0.0 | 0.0 | 0.00 | 0.00 | 0.00 | 98 | 1015.6 |
| 20260508055722 | 48 | 165 | 0.0 | 0.0 | 0.00 | 0.00 | 0.00 | 98 | 1015.6 |
| 20260508055220 | 48 | 165 | 0.0 | 0.0 | 0.00 | 0.00 | 0.00 | 98 | 1015.6 |
| 20260508054716 | 48 | 165 | 0.0 | 0.0 | 0.00 | 0.00 | 0.00 | 98 | 1015.5 |
| 20260508054214 | 48 | 165 | 0.0 | 0.0 | 0.00 | 0.00 | 0.00 | 98 | 1015.4 |
| 20260508053710 | 49 | 165 | 0.0 | 0.0 | 0.00 | 0.00 | 0.00 | 98 | 1015.5 |
| 20260508053208 | 49 | 166 | 0.0 | 0.0 | 0.00 | 0.00 | 0.00 | 98 | 1015.4 |
| 20260508052705 | 49 | 166 | 0.0 | 0.0 | 0.00 | 0.00 | 0.00 | 98 | 1015.4 |
| 20260508052202 | 49 | 166 | 0.0 | 0.0 | 0.00 | 0.00 | 0.00 | 98 | 1015.3 |
| 20260508051658 | 49 | 166 | 0.0 | 0.0 | 0.00 | 0.00 | 0.00 | 98 | 1015.4 |
| 20260508051154 | 49 | 166 | 0.0 | 0.0 | 0.00 | 0.00 | 0.00 | 98 | 1015.1 |
| 20260508050650 | 49 | 166 | 0.0 | 0.0 | 0.00 | 0.00 | 0.00 | 98 | 1015.4 |
| 20260508050148 | 49 | 165 | 0.0 | 0.9 | 0.00 | 0.00 | 0.00 | 98 | 1015.0 |
| 20260508045643 | 50 | 165 | 0.0 | 0.0 | 0.00 | 0.00 | 0.00 | 98 | 1015.2 |
| 20260508045142 | 50 | 164 | 0.0 | 0.0 | 0.00 | 0.00 | 0.00 | 98 | 1015.3 |
| 20260508044638 | 50 | 164 | 0.0 | 0.0 | 0.00 | 0.00 | 0.00 | 98 | 1015.0 |
| 20260508044134 | 50 | 164 | 0.0 | 0.0 | 0.00 | 0.00 | 0.00 | 98 | 1015.2 |
| 20260508043631 | 50 | 164 | 0.0 | 0.0 | 0.00 | 0.00 | 0.00 | 98 | 1015.3 |
| 20260508043129 | 50 | 164 | 0.0 | 0.0 | 0.00 | 0.00 | 0.00 | 97 | 1015.1 |
| 20260508042625 | 50 | 163 | 0.0 | 0.0 | 0.00 | 0.00 | 0.00 | 97 | 1015.2 |
| 20260508042123 | 50 | 161 | 0.0 | 0.9 | 0.00 | 0.00 | 0.00 | 97 | 1015.2 |
| 20260508041619 | 50 | 201 | 0.0 | 0.0 | 0.00 | 0.00 | 0.00 | 97 | 1015.2 |
| 20260508041116 | 51 | 201 | 0.0 | 0.0 | 0.00 | 0.00 | 0.00 | 97 | 1015.1 |
| 20260508040612 | 51 | 201 | 0.0 | 0.0 | 0.00 | 0.00 | 0.00 | 97 | 1015.2 |
| 20260508040110 | 51 | 201 | 0.0 | 0.0 | 0.00 | 0.00 | 0.00 | 97 | 1015.2 |
| 20260508035607 | 51 | 200 | 0.0 | 0.0 | 0.00 | 0.23 | 0.23 | 97 | 1014.9 |
| 20260508035104 | 51 | 200 | 0.0 | 0.0 | 0.00 | 0.23 | 0.23 | 97 | 1015.0 |
| 20260508034601 | 51 | 188 | 0.0 | 0.0 | 0.00 | 0.23 | 0.23 | 97 | 1015.0 |
| 20260508034058 | 51 | 186 | 0.0 | 0.0 | 0.00 | 0.23 | 0.23 | 97 | 1014.7 |
| 20260508033555 | 52 | 238 | 0.0 | 0.0 | 0.00 | 0.23 | 0.23 | 97 | 1014.9 |
| 20260508033054 | 52 | 239 | 0.0 | 0.9 | 0.00 | 0.23 | 0.23 | 97 | 1014.7 |
| 20260508032549 | 52 | 238 | 0.0 | 0.9 | 0.00 | 0.23 | 0.23 | 97 | 1015.0 |
| 20260508032048 | 52 | 207 | 0.0 | 0.0 | 0.00 | 0.23 | 0.23 | 97 | 1014.8 |
| 20260508031544 | 53 | 206 | 0.0 | 0.0 | 0.00 | 0.23 | 0.23 | 98 | 1014.8 |
| 20260508031040 | 53 | 206 | 0.0 | 0.0 | 0.00 | 0.23 | 0.23 | 97 | 1014.9 |
| 20260508030537 | 53 | 206 | 0.0 | 0.0 | 0.00 | 0.23 | 0.23 | 97 | 1014.8 |
| 20260508030035 | 53 | 246 | 0.0 | 0.0 | 0.00 | 0.23 | 0.23 | 98 | 1014.7 |
| 20260508025536 | 53 | 247 | 0.0 | 0.0 | 0.00 | 0.23 | 0.23 | 97 | 1014.6 |
| 20260508025033 | 53 | 277 | 0.0 | 0.9 | 0.00 | 0.23 | 0.23 | 98 | 1014.5 |
| 20260508024529 | 54 | 251 | 0.0 | 0.0 | 0.00 | 0.23 | 0.23 | 98 | 1014.5 |
| 20260508024026 | 54 | 196 | 0.0 | 0.0 | 0.00 | 0.23 | 0.23 | 98 | 1014.4 |
| 20260508023523 | 54 | 205 | 0.0 | 0.0 | 0.00 | 0.23 | 0.23 | 97 | 1014.6 |
| 20260508023020 | 54 | 226 | 0.0 | 0.0 | 0.00 | 0.23 | 0.23 | 97 | 1014.4 |
| 20260508022516 | 54 | 238 | 0.0 | 0.0 | 0.00 | 0.23 | 0.23 | 97 | 1014.4 |
| 20260508022013 | 54 | 237 | 0.0 | 0.0 | 0.00 | 0.23 | 0.23 | 97 | 1014.5 |
| 20260508021509 | 55 | 281 | 0.0 | 0.0 | 0.00 | 0.23 | 0.23 | 97 | 1014.1 |
| 20260508021005 | 54 | 208 | 0.0 | 0.0 | 0.00 | 0.23 | 0.23 | 97 | 1014.0 |
| 20260508020503 | 54 | 208 | 0.0 | 0.0 | 0.00 | 0.23 | 0.23 | 97 | 1014.1 |
| 20260508015959 | 54 | 217 | 0.0 | 0.9 | 0.00 | 0.23 | 0.23 | 97 | 1014.0 |
| 20260508015457 | 55 | 187 | 0.0 | 0.9 | 0.00 | 0.23 | 0.23 | 97 | 1013.8 |
| 20260508014954 | 55 | 255 | 0.0 | 0.0 | 0.00 | 0.23 | 0.23 | 97 | 1013.9 |
| 20260508014450 | 55 | 255 | 0.0 | 0.0 | 0.00 | 0.23 | 0.23 | 97 | 1013.9 |
| 20260508013947 | 55 | 255 | 0.0 | 0.0 | 0.00 | 0.23 | 0.23 | 96 | 1013.8 |
| 20260508013443 | 56 | 255 | 0.0 | 0.0 | 0.00 | 0.23 | 0.23 | 96 | 1013.8 |
| 20260508012940 | 56 | 255 | 0.0 | 0.0 | 0.00 | 0.23 | 0.23 | 96 | 1013.6 |
| 20260508012437 | 56 | 254 | 0.0 | 0.0 | 0.00 | 0.23 | 0.23 | 96 | 1013.6 |
| 20260508011934 | 56 | 254 | 0.0 | 0.0 | 0.00 | 0.23 | 0.23 | 96 | 1013.5 |
| 20260508011434 | 56 | 254 | 0.9 | 0.9 | 0.00 | 0.23 | 0.23 | 96 | 1013.2 |
| 20260508010929 | 56 | 258 | 0.0 | 0.9 | 0.00 | 0.23 | 0.23 | 96 | 1013.1 |
| 20260508010426 | 57 | 259 | 0.0 | 0.0 | 0.00 | 0.23 | 0.23 | 95 | 1012.9 |
| 20260508005924 | 57 | 260 | 0.0 | 0.0 | 0.00 | 0.23 | 0.23 | 95 | 1012.9 |
| 20260508005420 | 57 | 298 | 0.0 | 0.0 | 0.00 | 0.23 | 0.23 | 95 | 1012.6 |
| 20260508004917 | 57 | 320 | 0.0 | 0.9 | 0.00 | 0.23 | 0.23 | 95 | 1012.6 |
| 20260508004413 | 57 | 335 | 0.9 | 1.7 | 0.00 | 0.23 | 0.23 | 95 | 1012.3 |
| 20260508003910 | 57 | 74 | 0.0 | 0.0 | 0.00 | 0.23 | 0.23 | 95 | 1012.3 |
| 20260508003407 | 57 | 36 | 0.0 | 0.9 | 0.00 | 0.23 | 0.23 | 94 | 1012.1 |
| 20260508002904 | 57 | 18 | 0.9 | 1.7 | 0.00 | 0.23 | 0.23 | 94 | 1012.1 |
| 20260508002400 | 58 | 23 | 0.9 | 0.9 | 0.00 | 0.23 | 0.23 | 93 | 1012.2 |
| 20260508001856 | 58 | 80 | 0.0 | 0.9 | 0.00 | 0.23 | 0.23 | 93 | 1012.0 |
| 20260508001352 | 58 | 86 | 0.0 | 0.0 | 0.00 | 0.23 | 0.23 | 92 | 1012.1 |
| 20260508000849 | 58 | 58 | 0.9 | 0.9 | 0.00 | 0.23 | 0.23 | 92 | 1012.2 |
| 20260508000345 | 58 | 56 | 0.9 | 1.7 | 0.00 | 0.23 | 0.23 | 92 | 1012.1 |
| 20260507235842 | 59 | 70 | 0.0 | 0.9 | 0.00 | 0.23 | 0.23 | 91 | 1011.9 |
| 20260507235340 | 59 | 38 | 0.9 | 0.9 | 0.00 | 0.23 | 0.23 | 91 | 1011.8 |
| 20260507234837 | 59 | 48 | 0.9 | 1.7 | 0.00 | 0.23 | 0.23 | 90 | 1011.9 |
| 20260507234333 | 59 | 46 | 0.0 | 1.7 | 0.00 | 0.23 | 0.23 | 90 | 1011.8 |
| 20260507233830 | 59 | 73 | 0.0 | 0.9 | 0.00 | 0.23 | 0.23 | 90 | 1011.9 |
| 20260507233327 | 59 | 25 | 1.7 | 1.7 | 0.00 | 0.23 | 0.23 | 89 | 1011.9 |
| 20260507232826 | 59 | 84 | 0.0 | 1.7 | 0.00 | 0.23 | 0.23 | 89 | 1011.8 |
| 20260507232321 | 59 | 92 | 0.0 | 0.9 | 0.00 | 0.23 | 0.23 | 89 | 1011.9 |
| 20260507231819 | 59 | 65 | 0.0 | 0.9 | 0.00 | 0.23 | 0.23 | 89 | 1011.8 |
| 20260507231315 | 59 | 68 | 0.9 | 0.9 | 0.00 | 0.23 | 0.23 | 89 | 1011.8 |
| 20260507230812 | 60 | 57 | 0.9 | 0.9 | 0.00 | 0.23 | 0.23 | 89 | 1011.5 |
| 20260507230310 | 60 | 60 | 1.7 | 1.7 | 0.00 | 0.23 | 0.23 | 88 | 1011.7 |
| 20260507225809 | 60 | 77 | 0.0 | 0.9 | 0.00 | 0.23 | 0.23 | 89 | 1011.5 |
| 20260507225306 | 60 | 28 | 1.7 | 2.6 | 0.00 | 0.23 | 0.23 | 89 | 1011.4 |
| 20260507224801 | 60 | 27 | 1.7 | 1.7 | 0.00 | 0.23 | 0.23 | 90 | 1011.2 |
| 20260507224258 | 60 | 52 | 0.0 | 1.7 | 0.00 | 0.23 | 0.23 | 90 | 1011.0 |
| 20260507223755 | 60 | 40 | 0.9 | 0.9 | 0.00 | 0.23 | 0.23 | 91 | 1010.7 |
| 20260507223251 | 60 | 72 | 0.0 | 0.9 | 0.00 | 0.23 | 0.23 | 91 | 1010.8 |
| 20260507222748 | 60 | 81 | 0.0 | 3.5 | 0.00 | 0.23 | 0.23 | 91 | 1010.6 |
| 20260507222244 | 60 | 80 | 0.0 | 1.7 | 0.00 | 0.23 | 0.23 | 90 | 1010.8 |
| 20260507221742 | 60 | 53 | 0.9 | 1.7 | 0.00 | 0.23 | 0.23 | 91 | 1010.7 |
| 20260507221237 | 60 | 46 | 1.7 | 1.7 | 0.00 | 0.23 | 0.23 | 91 | 1010.7 |
| 20260507220734 | 60 | 75 | 0.9 | 0.9 | 0.00 | 0.23 | 0.23 | 91 | 1010.6 |
| 20260507220233 | 60 | 25 | 1.7 | 1.7 | 0.00 | 0.23 | 0.23 | 91 | 1010.5 |
| 20260507215728 | 60 | 23 | 0.9 | 2.6 | 0.00 | 0.23 | 0.23 | 90 | 1010.4 |
| 20260507215226 | 60 | 53 | 0.9 | 5.2 | 0.00 | 0.23 | 0.23 | 90 | 1010.1 |
| 20260507214723 | 60 | 39 | 1.7 | 5.2 | 0.00 | 0.23 | 0.23 | 89 | 1009.9 |
| 20260507214220 | 60 | 56 | 0.0 | 3.5 | 0.00 | 0.23 | 0.23 | 92 | 1010.2 |
| 20260507213715 | 61 | 90 | 0.9 | 1.7 | 0.00 | 0.23 | 0.23 | 92 | 1010.0 |
| 20260507213213 | 60 | 84 | 0.0 | 0.9 | 0.00 | 0.23 | 0.23 | 92 | 1009.8 |
| 20260507212709 | 60 | 17 | 1.7 | 2.6 | 0.00 | 0.23 | 0.23 | 91 | 1010.0 |
| 20260507212206 | 60 | 66 | 0.9 | 3.5 | 0.00 | 0.23 | 0.23 | 90 | 1010.0 |
| 20260507211702 | 61 | 53 | 0.9 | 3.5 | 0.00 | 0.23 | 0.23 | 89 | 1010.1 |
| 20260507211158 | 61 | 27 | 1.7 | 1.7 | 0.00 | 0.23 | 0.23 | 89 | 1009.9 |
| 20260507210656 | 61 | 56 | 0.0 | 2.6 | 0.00 | 0.23 | 0.23 | 89 | 1009.5 |
| 20260507210152 | 61 | 43 | 1.7 | 3.5 | 0.00 | 0.23 | 0.23 | 89 | 1009.5 |
| 20260507205649 | 62 | 12 | 1.7 | 3.5 | 0.00 | 0.23 | 0.23 | 87 | 1009.5 |
| 20260507205145 | 62 | 53 | 0.9 | 7.8 | 0.00 | 0.23 | 0.23 | 86 | 1009.6 |
| 20260507204642 | 62 | 40 | 1.7 | 3.5 | 0.00 | 0.23 | 0.23 | 87 | 1009.6 |
| 20260507204140 | 62 | 56 | 1.7 | 3.5 | 0.00 | 0.23 | 0.23 | 87 | 1009.8 |
| 20260507203637 | 62 | 65 | 0.9 | 2.6 | 0.00 | 0.23 | 0.23 | 88 | 1009.8 |
| 20260507203134 | 62 | 75 | 0.0 | 2.6 | 0.00 | 0.23 | 0.23 | 89 | 1009.9 |
| 20260507202630 | 62 | 38 | 1.7 | 3.5 | 0.00 | 0.23 | 0.23 | 89 | 1009.9 |
| 20260507202126 | 63 | 58 | 1.7 | 1.7 | 0.00 | 0.23 | 0.23 | 89 | 1009.6 |
| 20260507201621 | 63 | 81 | 0.0 | 0.9 | 0.00 | 0.23 | 0.23 | 89 | 1009.6 |
| 20260507201119 | 63 | 28 | 0.9 | 1.7 | 0.00 | 0.23 | 0.23 | 88 | 1009.6 |
| 20260507200614 | 64 | 47 | 1.7 | 3.5 | 0.00 | 0.23 | 0.23 | 88 | 1009.9 |
| 20260507200111 | 65 | 154 | 0.9 | 1.7 | 0.00 | 0.23 | 0.23 | 85 | 1009.5 |
| 20260507195608 | 69 | 55 | 0.9 | 3.5 | 0.00 | 0.23 | 0.23 | 79 | 1009.7 |
| 20260507195105 | 74 | 30 | 1.7 | 2.6 | 0.00 | 0.23 | 0.23 | 77 | 1009.1 |
| 20260507194601 | 74 | 220 | 0.9 | 1.7 | 0.00 | 0.23 | 0.23 | 73 | 1008.5 |
| 20260507194057 | 74 | 266 | 0.9 | 2.6 | 0.00 | 0.23 | 0.23 | 73 | 1008.3 |
| 20260507193554 | 73 | 206 | 1.7 | 3.5 | 0.00 | 0.23 | 0.23 | 75 | 1008.4 |
| 20260507193051 | 73 | 166 | 1.7 | 1.7 | 0.00 | 0.23 | 0.23 | 79 | 1008.6 |
| 20260507192547 | 73 | 214 | 0.0 | 0.9 | 0.00 | 0.23 | 0.23 | 76 | 1008.7 |
| 20260507192044 | 72 | 235 | 1.7 | 1.7 | 0.00 | 0.23 | 0.23 | 76 | 1008.5 |
| 20260507191540 | 73 | 222 | 3.5 | 3.5 | 0.00 | 0.23 | 0.23 | 74 | 1009.1 |
| 20260507191037 | 73 | 229 | 0.9 | 2.6 | 0.00 | 0.23 | 0.23 | 72 | 1008.7 |
| 20260507190534 | 74 | 165 | 0.9 | 2.6 | 0.00 | 0.23 | 0.23 | 73 | 1008.7 |
| 20260507190033 | 73 | 201 | 1.7 | 2.6 | 0.00 | 0.23 | 0.23 | 78 | 1008.6 |
| 20260507185531 | 73 | 222 | 0.0 | 0.9 | 0.00 | 0.23 | 0.23 | 76 | 1008.6 |
| 20260507185027 | 74 | 214 | 0.0 | 3.5 | 0.00 | 0.23 | 0.23 | 75 | 1008.7 |
| 20260507184526 | 73 | 228 | 1.7 | 2.6 | 0.00 | 0.23 | 0.23 | 73 | 1009.0 |
| 20260507184023 | 72 | 172 | 0.0 | 1.7 | 0.00 | 0.23 | 0.23 | 81 | 1009.1 |
| 20260507183519 | 73 | 175 | 0.9 | 1.7 | 0.00 | 0.23 | 0.23 | 76 | 1009.1 |
| 20260507183016 | 73 | 188 | 0.9 | 3.5 | 0.00 | 0.23 | 0.23 | 75 | 1009.1 |
| 20260507182512 | 73 | 174 | 0.9 | 0.9 | 0.00 | 0.23 | 0.23 | 75 | 1009.2 |
| 20260507182008 | 72 | 257 | 0.0 | 1.7 | 0.00 | 0.23 | 0.23 | 76 | 1009.3 |
| 20260507181506 | 72 | 227 | 2.6 | 3.5 | 0.00 | 0.23 | 0.23 | 78 | 1009.4 |
| 20260507181001 | 73 | 98 | 0.9 | 2.6 | 0.00 | 0.23 | 0.23 | 74 | 1009.2 |
| 20260507180458 | 73 | 224 | 2.6 | 2.6 | 0.00 | 0.23 | 0.23 | 76 | 1008.8 |
| 20260507175954 | 74 | 229 | 1.7 | 5.2 | 0.00 | 0.23 | 0.23 | 76 | 1009.2 |
| 20260507175451 | 73 | 223 | 1.7 | 2.6 | 0.00 | 0.23 | 0.23 | 76 | 1009.3 |
| 20260507174949 | 72 | 263 | 0.9 | 1.7 | 0.00 | 0.23 | 0.23 | 79 | 1009.3 |
| 20260507174446 | 72 | 187 | 1.7 | 2.6 | 0.00 | 0.23 | 0.23 | 79 | 1009.5 |
| 20260507173943 | 71 | 190 | 0.0 | 0.9 | 0.00 | 0.23 | 0.23 | 80 | 1009.5 |
| 20260507173440 | 71 | 196 | 1.7 | 1.7 | 0.00 | 0.23 | 0.23 | 85 | 1009.8 |
| 20260507172937 | 71 | 211 | 0.0 | 1.7 | 0.00 | 0.23 | 0.23 | 81 | 1009.6 |
| 20260507172433 | 71 | 288 | 0.9 | 0.9 | 0.00 | 0.23 | 0.23 | 81 | 1009.5 |
| 20260507171930 | 71 | 222 | 0.0 | 1.7 | 0.00 | 0.23 | 0.23 | 82 | 1009.8 |
| 20260507171426 | 71 | 179 | 1.7 | 2.6 | 0.00 | 0.23 | 0.23 | 81 | 1009.8 |
| 20260507170924 | 71 | 215 | 1.7 | 3.5 | 0.00 | 0.23 | 0.23 | 83 | 1009.9 |
| 20260507170420 | 71 | 181 | 0.9 | 1.7 | 0.00 | 0.23 | 0.23 | 85 | 1010.0 |
| 20260507165916 | 70 | 233 | 0.9 | 1.7 | 0.00 | 0.23 | 0.23 | 88 | 1010.2 |
| 20260507165412 | 70 | 232 | 0.0 | 0.0 | 0.00 | 0.23 | 0.23 | 85 | 1010.3 |
| 20260507164908 | 71 | 262 | 0.0 | 0.9 | 0.00 | 0.23 | 0.23 | 83 | 1010.4 |
| 20260507164405 | 70 | 210 | 0.0 | 2.6 | 0.00 | 0.23 | 0.23 | 87 | 1010.1 |
| 20260507163903 | 69 | 214 | 0.0 | 0.0 | 0.00 | 0.23 | 0.23 | 92 | 1010.0 |
| 20260507163400 | 69 | 257 | 0.9 | 0.9 | 0.00 | 0.23 | 0.23 | 92 | 1010.2 |
| 20260507162856 | 68 | 256 | 0.0 | 0.0 | 0.00 | 0.23 | 0.23 | 92 | 1010.3 |
| 20260507162352 | 68 | 227 | 0.9 | 1.7 | 0.00 | 0.23 | 0.23 | 90 | 1010.2 |
| 20260507161849 | 67 | 165 | 0.9 | 1.7 | 0.00 | 0.23 | 0.23 | 93 | 1010.2 |
| 20260507161345 | 67 | 195 | 1.7 | 1.7 | 0.00 | 0.23 | 0.23 | 94 | 1010.4 |
| 20260507160842 | 66 | 219 | 0.0 | 0.9 | 0.00 | 0.23 | 0.23 | 94 | 1010.3 |
| 20260507160338 | 67 | 227 | 0.9 | 1.7 | 0.00 | 0.23 | 0.23 | 96 | 1010.0 |
| 20260507155834 | 66 | 47 | 0.0 | 1.7 | 0.00 | 0.23 | 0.23 | 98 | 1010.0 |
| 20260507155330 | 67 | 171 | 0.0 | 1.7 | 0.00 | 0.23 | 0.23 | 98 | 1010.0 |
| 20260507154827 | 66 | 202 | 0.0 | 1.7 | 0.00 | 0.23 | 0.23 | 99 | 1009.7 |
| 20260507154325 | 65 | 224 | 0.0 | 0.9 | 0.00 | 0.23 | 0.23 | 99 | 1009.7 |
| 20260507153821 | 65 | 189 | 0.0 | 0.9 | 0.00 | 0.23 | 0.23 | 99 | 1009.7 |
| 20260507153318 | 66 | 216 | 0.9 | 0.9 | 0.00 | 0.23 | 0.23 | 99 | 1009.8 |
| 20260507152814 | 65 | 210 | 0.0 | 0.0 | 0.00 | 0.23 | 0.23 | 99 | 1010.0 |
| 20260507152311 | 65 | 210 | 0.0 | 0.0 | 0.00 | 0.23 | 0.23 | 99 | 1009.9 |
| 20260507151806 | 64 | 192 | 0.0 | 0.9 | 0.00 | 0.23 | 0.23 | 99 | 1010.1 |
| 20260507151303 | 64 | 213 | 0.0 | 1.7 | 0.00 | 0.23 | 0.23 | 99 | 1010.5 |
| 20260507150800 | 64 | 219 | 0.0 | 0.9 | 0.00 | 0.23 | 0.23 | 99 | 1010.5 |
| 20260507150257 | 64 | 194 | 0.0 | 0.0 | 0.00 | 0.23 | 0.23 | 99 | 1010.5 |
| 20260507145753 | 64 | 211 | 0.0 | 0.9 | 0.00 | 0.23 | 0.23 | 99 | 1010.5 |
| 20260507145249 | 64 | 244 | 0.0 | 0.9 | 0.00 | 0.23 | 0.23 | 99 | 1010.8 |
| 20260507144746 | 64 | 224 | 0.9 | 0.9 | 0.00 | 0.23 | 0.23 | 99 | 1010.7 |
| 20260507144244 | 64 | 227 | 0.9 | 2.6 | 0.05 | 0.23 | 0.23 | 99 | 1011.0 |
| 20260507143740 | 64 | 217 | 0.9 | 1.7 | 0.05 | 0.23 | 0.23 | 99 | 1011.0 |
| 20260507143238 | 64 | 202 | 0.9 | 2.6 | 0.00 | 0.22 | 0.22 | 99 | 1011.2 |
| 20260507142733 | 64 | 189 | 0.0 | 0.9 | 0.00 | 0.22 | 0.22 | 99 | 1011.2 |
| 20260507142230 | 64 | 221 | 0.9 | 1.7 | 0.00 | 0.22 | 0.22 | 99 | 1011.2 |
| 20260507141726 | 64 | 218 | 0.0 | 0.9 | 0.00 | 0.22 | 0.22 | 99 | 1011.0 |
| 20260507141224 | 64 | 214 | 0.9 | 1.7 | 0.00 | 0.22 | 0.22 | 99 | 1010.8 |
| 20260507140719 | 64 | 206 | 0.0 | 0.0 | 0.00 | 0.22 | 0.22 | 99 | 1010.6 |
| 20260507140218 | 64 | 206 | 0.0 | 0.9 | 0.00 | 0.22 | 0.22 | 99 | 1010.5 |
| 20260507135714 | 64 | 206 | 0.0 | 0.9 | 0.00 | 0.22 | 0.22 | 99 | 1010.6 |
| 20260507135212 | 64 | 204 | 0.9 | 0.9 | 0.07 | 0.22 | 0.22 | 99 | 1010.5 |
| 20260507134708 | 64 | 196 | 0.0 | 0.9 | 0.07 | 0.22 | 0.22 | 99 | 1010.7 |
| 20260507134204 | 63 | 204 | 0.0 | 0.0 | 0.00 | 0.21 | 0.21 | 99 | 1010.7 |
| 20260507133700 | 63 | 204 | 0.0 | 0.0 | 0.00 | 0.21 | 0.21 | 99 | 1010.7 |
| 20260507133157 | 63 | 204 | 0.0 | 0.0 | 0.00 | 0.21 | 0.21 | 99 | 1010.5 |
| 20260507132655 | 63 | 204 | 0.0 | 0.0 | 0.05 | 0.21 | 0.21 | 99 | 1010.5 |
| 20260507132151 | 63 | 204 | 0.0 | 0.9 | 0.05 | 0.21 | 0.21 | 99 | 1010.5 |
| 20260507131648 | 63 | 200 | 0.0 | 0.9 | 0.00 | 0.20 | 0.20 | 99 | 1010.1 |
| 20260507131145 | 63 | 231 | 0.0 | 0.9 | 0.00 | 0.20 | 0.20 | 99 | 1010.2 |
| 20260507130641 | 63 | 199 | 0.0 | 0.9 | 0.07 | 0.20 | 0.20 | 99 | 1010.0 |
| 20260507130140 | 63 | 228 | 0.9 | 0.9 | 0.07 | 0.20 | 0.20 | 99 | 1010.2 |